EDT,Max TemperatureF,Mean TemperatureF,Min TemperatureF,Max Dew PointF,MeanDew PointF,Min DewpointF,Max Humidity, Mean Humidity, Min Humidity, Max Sea Level PressureIn, Mean Sea Level PressureIn, Min Sea Level PressureIn, Max VisibilityMiles, Mean VisibilityMiles, Min VisibilityMiles, Max Wind SpeedMPH, Mean Wind SpeedMPH, Max Gust SpeedMPH,PrecipitationIn, CloudCover, Events, WindDirDegrees
2013-6-1,82,71,61,63,61,58,90,68,50,30.02,29.94,29.83,10,10,10,16,7,25,0.00,1,,215
2013-6-2,73,66,57,63,59,51,94,77,57,29.90,29.82,29.77,10,9,2,22,10,39,0.35,5,Rain-Thunderstorm,238
2013-6-3,62,52,43,54,46,35,89,76,39,30.07,29.96,29.90,10,10,10,14,8,21,0.00,5,,319
2013-6-4,66,52,41,41,37,34,89,57,32,30.21,30.14,30.07,10,10,10,12,8,17,0.00,0,,321
2013-6-5,72,56,41,45,41,36,86,58,36,30.24,30.16,30.08,10,10,10,10,3,,0.00,0,,104
2013-6-6,60,56,53,54,52,44,94,88,67,30.07,29.95,29.88,10,7,2,15,9,28,0.86,8,Rain,157
2013-6-7,64,59,54,61,57,53,100,94,88,29.86,29.84,29.80,10,4,0,12,5,,0.33,8,Fog-Rain,359
2013-6-8,64,58,53,54,53,50,100,90,70,30.14,29.96,29.83,10,7,2,10,7,16,0.03,7,Rain,300
2013-6-9,73,62,50,54,51,47,93,69,45,30.23,30.18,30.14,10,10,6,6,3,,0.01,1,,217
2013-6-10,64,62,60,63,61,53,100,93,72,30.14,29.95,29.78,10,5,2,14,9,20,0.67,8,Rain,148
2013-6-11,64,62,60,61,58,57,94,88,80,29.89,29.79,29.72,10,9,2,20,10,29,0.12,8,Rain,274
2013-6-12,75,64,55,57,53,50,94,73,48,29.95,29.89,29.81,10,10,10,16,8,21,0.00,5,,331
2013-6-13,71,62,53,64,58,51,100,93,78,29.80,29.60,29.46,10,6,0,21,8,30,0.67,8,Fog-Rain-Thunderstorm,12
2013-6-14,69,60,52,55,52,49,97,80,54,30.04,29.92,29.79,10,10,10,15,7,25,0.00,5,,328
2013-6-15,71,61,51,53,49,44,97,69,42,30.10,30.06,30.02,10,9,3,15,7,22,0.01,1,,282
2013-6-16,70,64,59,61,56,47,86,74,60,30.02,29.89,29.80,10,10,6,20,10,31,0.01,5,Rain,250
2013-6-17,77,68,60,59,55,51,94,68,43,29.97,29.94,29.90,10,10,8,18,9,26,0.01,1,,265
2013-6-18,68,60,51,57,52,42,83,72,64,30.04,29.97,29.91,10,10,10,12,4,,0.00,5,,360
2013-6-19,68,55,44,45,43,41,96,69,39,30.24,30.14,30.04,10,9,1,9,3,,0.00,0,,11
2013-6-20,75,58,42,50,46,39,100,65,35,30.28,30.26,30.23,10,9,1,10,1,16,0.00,0,,297
2013-6-21,79,64,51,57,51,46,89,62,36,30.31,30.27,30.23,10,10,10,9,2,,0.00,1,,219
2013-6-22,81,71,61,62,59,54,87,66,48,30.25,30.18,30.10,10,10,10,12,6,23,0.00,0,,225
2013-6-23,84,75,66,69,64,62,90,75,47,30.16,30.12,30.08,10,10,9,12,7,20,0.08,3,Rain-Thunderstorm,237
2013-6-24,84,76,68,66,62,59,84,64,44,30.14,30.09,30.01,10,10,10,17,8,25,0.00,1,Thunderstorm,262
2013-6-25,80,73,66,65,62,59,84,73,52,30.03,29.96,29.87,10,10,9,16,8,23,0.00,2,,247
2013-6-26,77,70,64,67,63,61,94,83,69,29.93,29.90,29.86,10,9,1,12,8,22,0.23,5,Rain,253
2013-6-27,72,66,59,66,61,57,100,94,76,29.90,29.82,29.66,10,4,0,8,1,,0.28,4,Fog-Rain,81
2013-6-28,70,64,59,64,60,57,100,88,68,29.68,29.60,29.52,10,9,2,10,4,,0.18,7,Rain-Thunderstorm,288
2013-6-29,70,63,57,63,59,55,100,90,78,29.77,29.62,29.53,10,8,0,13,4,17,0.08,6,Fog-Rain,232
2013-6-30,77,65,55,63,60,55,100,89,64,29.97,29.85,29.75,10,5,0,14,2,28,0.38,6,Fog-Rain-Thunderstorm,75